User: anonymous   Login
Location: Caltech
(34.1382°N, 118.1253°W)
Time: 22:35:04
(UTC-07:00)
Language:

Cosmos 1937 Rocket - Orbit

View from above orbital plane
View from above orbital plane
View from above satellite
View from above satellite

Ground track
Ground track

The orbit data is extracted from the following two-line orbital elements,

1 19039U 88029B   17179.43179980 +.00000021 +00000-0 +15289-4 0  9997
2 19039 074.0490 278.7191 0022670 088.7137 318.8880 14.38364793532187
Epoch (UTC): 28 June 2017 10:21:47
Eccentricity: 0.0022670
inclination: 74.0490°
perigee height: 748 km
apogee height: 780 km
right ascension of ascending node: 278.7191°
argument of perigee: 88.7137°
revolutions per day: 14.38364793
mean anomaly at epoch: 318.8880°
orbit number at epoch: 53218

The dashed part of the orbit path shows where the satellite is in the earth's shadow,  

DLR